Hourly Weather Roundup
Issued by NWS Central Illinois

Home | Current Version | Previous Version | Text Only | Print | Product List | Glossary On
Versions: 1 2 3 4 5 6 7 8 9 10 11 12 13 14 15 16 17 18 19 20 21 22 23 24 25 26 27 28 29 30 31 32 33 34 35 36 37 38 39 40 41 42 43 44 45 46 47 48 49 50
000
NZUS43 KILX 031110
HWRILX

AREA WEATHER ROUNDUP
NATIONAL WEATHER SERVICE, LINCOLN IL
600 AM CDT SUN MAY 03 2015


CITY           SKY/WX    TMP DP  RH WIND       PRES   REMARKS
BLOOMINGTON    MOCLDY    59  47  64 S9        30.00F
CHAMPAIGN      MOCLDY    59  46  62 S10       30.02S
DANVILLE       CLOUDY    58  47  66 S6        30.01S
DECATUR        MOCLDY    61  46  57 S10       30.01S
EFFINGHAM      MOCLDY    58  45  60 SE6       30.05F
FLORA          CLOUDY    56  50  82 SE3       30.05F
GALESBURG      CLOUDY    57  49  73 CALM      29.95S
JACKSONVILLE   PTCLDY    63  46  54 S7        29.96S
LACON          CLOUDY    60  45  56 S7        29.95S
LAWRENCEVILLE  CLOUDY    58  50  75 S6        30.07R
LITCHFIELD     MOCLDY    58  44  59 SE7       30.00F
$$


CITY           SKY/WX    TMP DP  RH WIND       PRES   REMARKS
LINCOLN        MOCLDY    59  46  61 S9        29.97S
MACOMB         MOCLDY    56  47  72 S9        29.96S
MATTOON        CLOUDY    60  46  59 S6        30.03S
MT CARMEL AP   CLOUDY    61  48  63 S8        30.06S
OLNEY-NOBLE AP CLOUDY    57  48  72 S3        30.06S
PARIS          CLOUDY    58  49  73 S5        30.05S
PEORIA         MOCLDY    61  45  55 S8        29.97S
PONTIAC        PTCLDY    57  46  67 S8        29.99F
RANTOUL        CLOUDY    64  46  53 S6        30.02R
ROBINSON       CLOUDY    58  49  72 SW3       30.07R
SPRINGFIELD    MOCLDY    60  46  59 S10       29.98F
TAYLORVILLE    CLOUDY    59  45  58 S8        30.00F
$$

...REGIONAL REPORTS...


CITY           SKY/WX    TMP DP  RH WIND       PRES   REMARKS
CHICAGO O`HARE CLOUDY    60  42  51 S7        29.97R
KANKAKEE       CLOUDY    56  45  64 CALM      30.01S
MOLINE         TSTM      57  53  86 W6        29.93R FOG
MOUNT VERNON   CLOUDY    55  48  76 CALM      30.05S
PITTSFIELD     MOCLDY    59  47  63 S6        29.97R
QUINCY         PTCLDY    59  46  62 S9        29.94S
ROCKFORD       CLOUDY    59  43  55 SE6       29.95F
$$


CITY           SKY/WX    TMP DP  RH WIND       PRES   REMARKS
BURLINGTON     CLOUDY    59  48  67 S8        29.92S
CEDAR RAPIDS   CLOUDY    61  50  67 S16       29.86F
DES MOINES     CLOUDY    61  56  83 S12       29.76F
KIRKSVILLE     MOCLDY    57  51  80 S7        29.92R
OTTUMWA        CLOUDY    56  51  84 S12       29.86F
ST LOUIS       MOCLDY    64  42  44 S7        29.99F
$$


CITY           SKY/WX    TMP DP  RH WIND       PRES   REMARKS
TERRE HAUTE    CLOUDY    57  49  74 CALM      30.06R
EVANSVILLE     MOCLDY    55  50  83 CALM      30.08S
INDIANAPOLIS   CLOUDY    54  45  71 S5        30.06R
LAFAYETTE      CLOUDY    54  45  71 SE3       30.04R
MADISON        MOCLDY    59  48  67 S8        29.91S
MILWAUKEE      MOCLDY    59  40  49 SW9       29.94S
$$





USA.gov is the U.S. government's official web portal to all federal, state and local government web resources and services.